Location: Flint Hill Observatory
(31.1875°N, 100.5222°W)
Time: 20:51:58
(UTC-06:00)

Daily predictions for brighter satellites

Satellite Brightness Start Highest point End
(mag) Time Altitude Azimuth Time Altitude Azimuth Time Altitude Azimuth
SPOT 3 Rocket 3.7 17:57:55 10° SSE 18:02:59 55° ENE 18:08:02 10° N
Cosmos 1536 3.9 18:02:45 10° NNW 18:06:42 51° W 18:10:38 10° S
Meteor 1-18 Rocket 4.3 18:02:04 10° S 18:07:35 65° E 18:13:14 10° NNE
CZ-3A R/B 4.4 18:04:57 10° WNW 18:09:20 28° N 18:24:04 10° NE
Cosmos 1844 Rocket 3.8 18:04:39 10° SW 18:09:56 44° WNW 18:15:18 10° N
Cosmos 921 Rocket 4.5 18:08:26 10° SE 18:11:14 18° E 18:14:05 10° NE
AQUARIUS 4.1 18:08:01 10° SSE 18:12:28 67° ENE 18:16:56 10° N
USA 32 4.2 18:10:22 10° S 18:15:35 79° W 18:20:49 10° N
Cosmos 1346 Rocket 3.5 18:12:18 10° SSE 18:15:47 32° E 18:19:16 10° NNE
NOSS 3-3 (A) 4.1 18:17:08 10° SSW 18:23:13 78° WNW 18:29:43 10° NNE
NOSS 3-3 (C) 4.1 18:17:14 10° SSW 18:23:19 78° WNW 18:29:49 10° NNE
IDEFIX/ARIANE 42P 2.6 18:18:26 10° SSE 18:23:38 87° ENE 18:28:50 10° NNW
ASTRO F (AKARI) 4.2 18:20:33 10° NNE 18:23:40 88° WNW 18:26:50 10° SSW
CORIOLIS 4.1 18:19:21 10° SSE 18:24:46 78° ENE 18:30:11 10° N
Meteor 2-19 Rocket 4.4 18:19:14 10° N 18:25:18 89° E 18:31:21 10° S
SL-8 Rocket 4.2 18:21:16 10° N 18:27:25 77° W 18:33:33 10° S
Cosmos 1455 Rocket 3.0 18:24:24 10° N 18:28:48 73° E 18:33:13 10° SSE
Cosmos 2297 4.0 18:23:46 10° S 18:29:08 48° ESE 18:34:32 10° NNE
SKYMED 2 3.7 18:25:26 10° NNE 18:29:41 54° E 18:33:55 10° S
Cosmos 494 Rocket 4.0 18:24:44 10° N 18:29:55 57° ENE 18:35:04 10° SSE
Delta 2 Rocket 3.2 18:31:22 10° WSW 18:35:07 84° NNW 18:38:03 19° ENE
CZ-4 R/B 2.9 18:32:02 10° S 18:36:00 42° W 18:39:59 10° NNW
ATLAS 2AS CENTAUR R/B 2.9 18:29:29 10° NNW 18:37:28 70° ENE 18:44:47 10° SE
MSX 3.8 18:32:45 10° SSE 18:38:30 78° ENE 18:44:14 10° N
Cosmos 2366 rocket 4.1 18:32:24 10° N 18:38:46 87° W 18:45:03 10° S
SMAP 3.7 18:34:40 10° S 18:39:14 59° W 18:43:50 10° NNW
OTV 4 0.6 18:37:27 10° WNW 18:40:26 71° SSW 18:42:43 16° ESE
MONITOR-E 4.1 18:39:54 10° SSE 18:43:04 78° ENE 18:46:16 10° N
Cosmos 2278 Rocket 2.9 18:37:49 10° SW 18:43:20 54° WNW 18:48:52 10° N
Cosmos 2218 Rocket 4.4 18:37:16 10° NNW 18:43:28 69° W 18:49:35 10° S
Cosmos 1238 Rocket 4.5 18:41:30 10° SW 18:44:02 25° W 18:46:32 10° NNW
SL-24 DEB 4.3 18:41:11 10° N 18:45:55 83° W 18:50:35 10° S
CZ-2C R/B 3.4 18:41:38 10° S 18:46:22 50° W 18:51:18 10° NNW
Cosmos 1809 Rocket 4.4 18:43:37 10° N 18:49:42 61° E 18:55:42 10° SSE
Cosmos 1975 2.7 18:45:45 10° N 18:49:48 84° E 18:53:50 10° S
Meteor 1-19 Rocket 4.3 18:48:14 10° S 18:53:49 55° E 18:59:29 10° NNE
SL-27 R/B 4.5 18:53:13 10° NW 18:56:30 32° W 18:59:43 10° SSW
Cosmos 2251 Rocket 4.0 18:51:44 10° NNW 18:57:01 63° WSW 19:02:14 10° S
Genesis I 4.4 18:56:00 10° N 18:58:26 25° NNE 18:58:26 25° NNE
Cosmos 1484 Rocket 2.8 18:57:54 10° S 19:01:40 78° WSW 19:05:25 10° NNW
ORS 1 (USA 231) 4.5 19:00:01 10° WNW 19:03:13 70° NNE 19:03:35 61° ENE
NOAA 12 4.3 18:58:52 10° SE 19:03:52 45° ENE 19:08:51 10° N
Cosmos 1743 2.9 19:10:05 48° E 19:10:05 48° E 19:13:30 10° SSE
Meteor 1-13 Rocket 4.3 19:05:37 10° S 19:11:14 80° W 19:17:00 10° N
METEOR-M 4.3 19:07:10 10° SE 19:12:14 46° ENE 19:17:18 10° N
Cosmos 1821 Rocket 4.0 19:07:41 10° N 19:13:36 50° E 19:19:27 10° SSE
Cosmos 2082 Rocket 2.5 19:08:52 10° N 19:14:13 41° ENE 19:15:50 34° ESE
Cosmos 1833 Rocket 3.3 19:10:32 10° N 19:14:56 34° NE 19:14:56 34° NE
COSMO-SKYMED 1 4.0 19:13:38 10° N 19:17:38 37° WNW 19:21:37 10° SW
Cosmos 1500 4.2 19:15:22 10° NNW 19:19:03 47° W 19:22:45 10° SSW
NOSS 2-1 (D) 3.7 19:15:52 10° SW 19:19:35 56° WNW 19:20:55 36° N
NOSS 2-1 (C) 3.7 19:16:32 10° SW 19:20:17 58° WNW 19:21:34 37° N
Meteor 1-23 Rocket 4.2 19:17:26 10° S 19:23:06 62° E 19:25:42 32° NNE
Meteor 1-28 Rocket 4.0 19:20:30 18° N 19:23:08 51° WNW 19:26:48 10° SSW
CZ-3B DEB 4.4 19:22:18 10° WNW 19:26:00 19° N 19:30:57 13° NNE
Tiangong 1 3.5 19:27:34 10° WNW 19:28:54 16° NW 19:28:54 16° NW
GEOS 3 Rocket 3.4 19:34:43 58° ESE 19:35:36 72° NE 19:40:42 10° NNW
Meteor 2-4 Rocket 3.6 19:32:24 10° S 19:37:49 80° W 19:40:39 29° N
NOSS 2-1 (E) 4.4 19:35:20 10° SW 19:38:56 38° NW 19:39:33 35° NNW
Cosmos 2056 Rocket 3.4 19:35:04 10° SSW 19:40:28 85° ESE 19:41:13 67° NNE
Cosmos 1025 Rocket 3.6 19:39:05 10° SSW 19:43:21 56° W 19:44:25 43° NNW
COSMOS 2487 4.3 19:45:04 10° NW 19:53:20 - S 19:47:27 29° WNW
Cosmos 2369 Rocket 4.3 19:45:44 10° SSE 19:46:21 13° SSE 19:46:21 13° SSE
Cosmos 1727 Rocket 4.3 19:45:42 10° S 19:50:18 48° SE 19:50:18 48° SE
Cosmos 1624 Rocket 4.3 19:49:10 10° SSW 19:54:17 63° WNW 19:54:56 58° NW
FALCON 9 R/B 3.0 19:58:39 10° W 20:15:32 70° N 20:15:38 70° N
Mugunghwa Rocket 4.5 20:11:00 10° W 20:18:40 62° S 20:18:40 62° S
ATLAS 3B CENTAUR R/B 3.7 20:43:50 10° W 20:53:30 47° WSW 20:53:30 47° WSW
Cosmos 2082 Rocket 4.4 20:53:51 10° NW 20:57:55 20° W 20:58:00 20° WSW
